Location: Ago
(8.4667°N, 4.4167°E)
Time: 06:06:18
(UTC+00:00)

ARGOS - Pass Details

Date: 06 June 2020
Orbit: 820 x 834 km, 98.5° (Epoch: 05 July)

Event Time Altitude Azimuth Distance (km) Brightness Sun altitude
Exits shadow 19:41:18 51° 156° (SSE) 1,032 3.3 -23.5°
Maximum altitude 19:42:43 81° 77° (ENE) 836 3.0 -23.8°
Drops below altitude 10° 19:48:05 10° 351° (N) 2,421 6.1 -25.0°
Sets 19:50:26 0° 350° (N) 3,355 6.9 -25.5°
